FW0270 Weather Reports


Display with metric or nautical units.
time (UTC)temp
F
wind
direction
speed
MPH
gust
MPH
rain 1hr
in
rain 24hr
in
rain mn
in
humidity
%
barometer
mb
20260507144543 52 116 0.0 4.0 0.00 0.00 0.00 55 1013.6
20260507143039 51 132 0.0 3.0 0.00 0.00 0.00 54 1013.7
20260507141537 50 50 0.0 3.0 0.00 0.00 0.00 54 1014.1
20260507140041 48 127 0.0 4.0 0.00 0.00 0.00 59 1014.2
20260507134529 47 144 0.0 3.0 0.00 0.00 0.00 61 1014.5
20260507133025 45 115 0.0 3.0 0.00 0.00 0.00 62 1014.5
20260507131534 43 100 1.0 6.0 0.00 0.00 0.00 66 1014.7
20260507130017 42 37 1.0 5.0 0.00 0.00 0.00 67 1015.0
20260507124517 41 134 0.0 2.0 0.00 0.00 0.00 71 1014.8
20260507123010 39 122 0.0 1.0 0.00 0.00 0.00 72 1014.9
20260507121505 38 201 0.0 3.0 0.00 0.00 0.00 75 1014.6
20260507120004 36 96 0.0 4.0 0.00 0.00 0.00 75 1014.7
20260507114502 36 15 0.0 5.0 0.00 0.00 0.00 74 1014.9
20260507113003 36 79 0.0 3.0 0.00 0.00 0.00 74 1014.9
20260507111501 36 153 0.0 2.0 0.00 0.00 0.00 76 1014.7
20260507110001 35 108 0.0 3.0 0.00 0.00 0.00 76 1014.7
20260507104612 35 121 0.0 1.0 0.00 0.00 0.00 77 1014.7
20260507103058 34 121 0.0 1.0 0.00 0.00 0.00 77 1014.9
20260507101557 34 121 0.0 0.0 0.00 0.00 0.00 76 1015.1
20260507100100 35 121 0.0 0.0 0.00 0.00 0.00 74 1015.2
20260507094605 36 121 0.0 0.0 0.00 0.00 0.00 71 1015.3
20260507093053 37 121 0.0 1.0 0.00 0.00 0.00 69 1015.4
20260507091553 37 121 0.0 2.0 0.00 0.00 0.00 70 1015.5
20260507090047 37 134 0.0 1.0 0.00 0.00 0.00 72 1015.6
20260507084553 36 134 0.0 1.0 0.00 0.00 0.00 72 1015.6
20260507083040 35 32 0.0 1.0 0.00 0.00 0.00 74 1015.8
20260507081537 35 30 0.0 1.0 0.00 0.00 0.00 76 1016.0
20260507080033 34 30 0.0 1.0 0.00 0.00 0.00 79 1016.0
20260507074530 32 30 0.0 1.0 0.00 0.00 0.00 82 1016.2
20260507073027 31 30 0.0 1.0 0.00 0.00 0.00 84 1016.4
20260507071523 29 30 0.0 0.0 0.00 0.00 0.00 85 1016.5
20260507070024 28 30 0.0 0.0 0.00 0.00 0.00 84 1016.6
20260507064520 28 30 0.0 0.0 0.00 0.00 0.00 82 1016.9
20260507063018 28 30 0.0 0.0 0.00 0.00 0.00 82 1016.8
20260507061516 29 30 0.0 0.0 0.00 0.00 0.00 82 1017.0
20260507060017 29 30 0.0 0.0 0.00 0.00 0.00 81 1017.3
20260507054513 29 30 0.0 0.0 0.00 0.00 0.00 80 1017.3
20260507053010 30 30 0.0 0.0 0.00 0.00 0.00 79 1017.4
20260507051509 31 30 0.0 0.0 0.00 0.00 0.00 79 1017.3
20260507050024 30 30 0.0 0.0 0.00 0.00 0.00 79 1017.3
20260507044504 31 30 0.0 0.0 0.00 0.00 0.00 77 1017.3
20260507043004 32 30 0.0 0.0 0.00 0.00 0.00 75 1017.4
20260507041504 32 30 0.0 0.0 0.00 0.00 0.00 76 1017.4
20260507040004 32 30 0.0 0.0 0.00 0.00 0.00 74 1017.4
20260507034505 33 30 0.0 0.0 0.00 0.00 0.00 73 1017.5
20260507033002 33 30 0.0 0.0 0.00 0.00 0.00 73 1017.5
20260507031505 34 30 0.0 0.0 0.00 0.00 0.00 71 1017.5
20260507030002 35 30 0.0 0.0 0.00 0.00 0.00 70 1017.5
20260507024600 36 30 0.0 0.0 0.00 0.00 0.00 67 1017.5
20260507023100 38 30 0.0 0.0 0.00 0.00 0.00 66 1017.4
20260507021613 39 30 0.0 0.0 0.00 0.00 0.00 65 1017.3
20260507020059 41 30 0.0 0.0 0.00 0.00 0.00 61 1017.2
20260507014601 43 30 0.0 0.0 0.00 0.00 0.00 57 1017.3
20260507013058 45 30 0.0 0.0 0.00 0.00 0.00 51 1017.1
20260507011600 47 30 0.0 2.0 0.00 0.00 0.00 48 1017.1
20260507010057 49 30 0.0 3.0 0.00 0.00 0.00 46 1017.1
20260507004556 50 295 0.0 3.0 0.00 0.00 0.00 44 1016.9
20260507003056 51 353 0.0 9.0 0.00 0.00 0.00 43 1016.9
20260507001604 51 30 4.0 8.0 0.00 0.00 0.00 41 1016.9
20260507000056 52 306 3.0 12.0 0.00 0.00 0.00 42 1017.0
20260506234616 52 292 2.0 11.0 0.00 0.00 0.00 42 1017.1
20260506233053 52 14 3.0 10.0 0.00 0.00 0.00 41 1017.0
20260506231555 52 41 5.0 12.0 0.00 0.00 0.00 41 1017.1
20260506230054 52 338 4.0 15.0 0.00 0.00 0.00 42 1017.2
20260506224551 51 288 3.0 13.0 0.00 0.00 0.00 42 1017.2
20260506223056 52 18 4.0 14.0 0.00 0.00 0.00 43 1017.2
20260506221548 52 307 4.0 11.0 0.00 0.00 0.00 43 1017.3
20260506220048 52 75 7.0 17.0 0.00 0.00 0.00 40 1017.4
20260506214546 51 268 4.0 13.0 0.00 0.00 0.00 44 1017.1
20260506213045 51 308 4.0 15.0 0.00 0.00 0.00 42 1017.4
20260506211544 51 304 5.0 18.0 0.00 0.00 0.00 44 1017.4
20260506210043 51 311 3.0 13.0 0.00 0.00 0.00 46 1017.4
20260506204552 51 137 6.0 17.0 0.00 0.00 0.00 45 1017.6
20260506203040 50 295 4.0 11.0 0.00 0.00 0.00 46 1017.6
20260506201541 51 300 5.0 9.0 0.00 0.00 0.00 44 1017.7
20260506200042 50 41 10.0 15.0 0.00 0.00 0.00 44 1017.9
20260506194542 50 223 4.0 15.0 0.00 0.00 0.00 47 1017.9
20260506193036 50 325 4.0 13.0 0.00 0.00 0.00 45 1017.9
20260506191534 49 15 5.0 11.0 0.00 0.00 0.00 46 1018.1
20260506184541 48 236 5.0 10.0 0.00 0.00 0.00 47 1018.0
20260506183052 48 256 6.0 10.0 0.00 0.00 0.00 47 1018.3
20260506181544 49 278 4.0 14.0 0.00 0.00 0.00 47 1018.2
20260506180038 49 48 4.0 12.0 0.00 0.00 0.00 47 1018.3
20260506174536 49 319 5.0 12.0 0.00 0.00 0.00 46 1018.2
20260506173036 49 271 7.0 13.0 0.00 0.00 0.00 45 1018.2
20260506171542 49 297 4.0 13.0 0.00 0.00 0.00 46 1018.3
20260506170038 49 293 6.0 16.0 0.00 0.00 0.00 45 1018.3
20260506164543 48 281 8.0 14.0 0.00 0.00 0.00 46 1018.3
20260506163031 48 296 5.0 10.0 0.00 0.00 0.00 47 1018.4
20260506161538 48 262 3.0 14.0 0.00 0.00 0.00 48 1018.3
20260506160041 47 296 6.0 18.0 0.00 0.00 0.00 48 1018.2
20260506154531 47 49 7.0 12.0 0.00 0.00 0.00 47 1018.2
20260506153026 48 44 8.0 14.0 0.00 0.00 0.00 48 1018.3
20260506151532 47 11 5.0 11.0 0.00 0.00 0.00 49 1017.9
20260506150028 45 314 8.0 15.0 0.00 0.00 0.00 50 1018.1